Location: Newark
(45.9456°N, 15.4064°E)
Time: 17:14:06
(UTC+00:00)

Courier 1B Rocket - Pass Details

Date: 24 January 2020
Orbit: 920 x 1202 km, 28.2° (Epoch: 21 February)

Event Time Altitude Azimuth Distance (km) Brightness Sun altitude
Rises 11:53:27 0° 229° (SW) 3,850 8.9 24.1°
Reaches altitude 10° 11:57:28 10° 209° (SSW) 2,833 9.0 23.9°
Maximum altitude 12:01:17 16° 174° (S) 2,383 8.8 23.8°
Drops below altitude 10° 12:05:00 10° 140° (SE) 2,724 7.9 23.6°
Sets 12:08:43 0° 119° (ESE) 3,624 8.2 23.5°
